Location: Barcelona
(41.3830°N, 2.1830°E)
Time: 13:12:30
(UTC+01:00)

ISS - Pass Details

Date: 11 December 2019
Orbit: 411 x 421 km, 51.6° (Epoch: 11 December)

Event Time Altitude Azimuth Distance (km) Brightness Sun altitude
Rises 19:12:15 0° 291° (WNW) 2,358 1.0 -20.0°
Reaches altitude 10° 19:14:53 10° 269° (W) 1,492 0.2 -20.5°
Maximum altitude 19:17:02 16° 229° (SW) 1,174 -0.7 -20.9°
Drops below altitude 10° 19:19:11 10° 188° (S) 1,489 -0.7 -21.3°
Enters shadow 19:21:26 - 168° (SSE) 2,207 -0.1 -21.7°
